Regional Weather Roundup
Issued by NWS

Home | Current Version | Previous Version | Graphics & Text | Print | Product List | Glossary On
Versions: 1 2 3 4 5 6 7 8 9 10 11 12 13 14 15 16 17 18 19 20 21 22 23 24 25 26 27 28 29 30 31 32 33 34 35 36 37 38 39 40 41 42 43 44 45 46 47 48 49 50
000
ASUS43 KOAX 241810
RWRNE

WEATHER ROUNDUP FOR NEBRASKA
NATIONAL WEATHER SERVICE OMAHA NE
100 PM CDT THU JUL 24 2014

NOTES: SATELLITE DATA IS BEING USED TO AUGMENT CLOUD COVER ABOVE
       12000 FEET.
       "FAIR" INDICATES FEW OR NO CLOUDS BELOW 12,000 FEET WITH NO
       SIGNIFICANT WEATHER AND/OR OBSTRUCTIONS TO VISIBILITY.

  * THESE STATIONS DO NOT REPORT WEATHER SUCH AS RAIN...SNOW OR FOG.

NEZ001>004-019>022-054>056-241900-
NEBRASKA PANHANDLE

CITY           SKY/WX    TMP DP  RH WIND       PRES   REMARKS
SCOTTSBLUFF    MOSUNNY   94  57  28 SW7       29.95F HX  92
6HR MIN TEMP:  66; 6HR MAX TEMP:  94;

ALLIANCE       SUNNY     99  50  19 W9        29.94F HX  96
6HR MIN TEMP:  64; 6HR MAX TEMP:  99;

CHADRON        MOSUNNY   99  52  20 SW9G21    29.84F HX  96
6HR MIN TEMP:  71; 6HR MAX TEMP: 100;

KIMBALL        SUNNY     96  44  16 W12G17    30.03F HX  92
SIDNEY         SUNNY    101  47  16 W12       30.01F HX  97
6HR MIN TEMP:  67; 6HR MAX TEMP: 101;

$$

NEZ057>060-069>072-079>082-241900-
SOUTHWEST NEBRASKA

CITY           SKY/WX    TMP DP  RH WIND       PRES   REMARKS
NORTH PLATTE   SUNNY     90  67  46 S15G23    29.94F HX  93
6HR MIN TEMP:  68; 6HR MAX TEMP:  90;

IMPERIAL       SUNNY    101  48  16 S18G28    29.95F HX  97
6HR MIN TEMP:  67; 6HR MAX TEMP: 101;

LEXINGTON      SUNNY     86  70  58 S21       29.98F HX  91
MCCOOK         SUNNY     93  69  45 S14       29.96F HX  98
6HR MIN TEMP:  64; 6HR MAX TEMP:  93;

OGALLALA       SUNNY     94  62  33 SW14      29.94F HX  94
$$

NEZ005>010-023>029-035>040-094-241900-
NORTH CENTRAL NEBRASKA

CITY           SKY/WX    TMP DP  RH WIND       PRES   REMARKS
VALENTINE      SUNNY     93  66  40 S22G31    29.84F HX  96
6HR MIN TEMP:  66; 6HR MAX TEMP:  94;

AINSWORTH      SUNNY     86  66  51 S25G31    29.90F
BROKEN BOW     SUNNY     86  68  54 S23G31    29.97F
6HR MIN TEMP:  64; 6HR MAX TEMP:  86;

O`NEILL        SUNNY     83  62  49 S25G35    29.93F
ORD            CLOUDY    80  66  62 SE22G29   29.97F
6HR MIN TEMP:  64; 6HR MAX TEMP:  81;

THEDFORD       SUNNY     90  67  47 S17G26    29.93F HX  93
$$

NEZ041-046>049-061>064-073>077-083>087-241900-
SOUTH CENTRAL NEBRASKA

CITY           SKY/WX    TMP DP  RH WIND       PRES   REMARKS
GRAND ISLAND   MOSUNNY   82  67  60 SE21G28   30.03F
6HR MIN TEMP:  66; 6HR MAX TEMP:  82;

AURORA         MOSUNNY   81  68  63 SE15G28   30.04F
HASTINGS       SUNNY     83  62  49 SE17G26   30.02F
6HR MIN TEMP:  66; 6HR MAX TEMP:  84;

HEBRON         SUNNY     83  63  49 SE16      30.06S
HOLDREGE       SUNNY     85  67  54 S18G28    30.00F
KEARNEY *      SUNNY     84  68  58 SE18G28   30.00F
YORK           SUNNY     81  66  61 SE21G31   30.05F
$$

NEZ011>018-030>034-042>045-241900-
NORTHEAST NEBRASKA

CITY           SKY/WX    TMP DP  RH WIND       PRES   REMARKS
NORFOLK        SUNNY     81  62  52 S28G35    30.00F
6HR MIN TEMP:  66; 6HR MAX TEMP:  81;

ALBION         SUNNY     79  63  58 S20G30    30.01F
BLAIR          PTSUNNY   76  61  58 S16G24    30.05F
COLUMBUS *     SUNNY     63  63 100 SE21G29   30.03F
FREMONT        SUNNY     81  61  51 S21G26    30.04F
TEKAMAH        PTSUNNY   81  62  52 S16       30.04S
6HR MIN TEMP:  62; 6HR MAX TEMP:  81; 6HR PCP:  0.01;

WAYNE          MOSUNNY   81  64  56 S24G30    30.01F
$$

NEZ050>053-065>068-078-088>093-241900-
SOUTHEAST NEBRASKA

CITY           SKY/WX    TMP DP  RH WIND       PRES   REMARKS
LINCOLN        SUNNY     82  60  47 SE21G28   30.07F
6HR MIN TEMP:  69; 6HR MAX TEMP:  84;

OMAHA EPPLEY   PTSUNNY   79  60  52 S22G29    30.04F
6HR MIN TEMP:  67; 6HR MAX TEMP:  80; 6HR PCP: TRACE;

BEATRICE       SUNNY     80  64  59 SE14      30.08F
FALLS CITY     MOSUNNY   80  62  54 E14       30.12F
6HR MIN TEMP:  63; 6HR MAX TEMP:  81;

NEBRASKA CITY  MOSUNNY   78  59  52 S14       30.11F
PLATTSMOUTH    MOSUNNY   79  60  51 S16G24    30.07F
$$

NEZ044-045-051>053-067-241900-
OMAHA AREA

CITY           SKY/WX    TMP DP  RH WIND       PRES   REMARKS
OMAHA EPPLEY   PTSUNNY   79  60  52 S22G29    30.04F
6HR MIN TEMP:  67; 6HR MAX TEMP:  80; 6HR PCP: TRACE;

BLAIR          PTSUNNY   76  61  58 S16G24    30.05F
FREMONT        SUNNY     81  61  51 S21G26    30.04F
MILLARD        MOSUNNY   78  62  56 S14G25    30.04F
OFFUTT AFB     PTSUNNY   79  62  56 S18G24    30.04F
PLATTSMOUTH    MOSUNNY   79  60  51 S16G24    30.07F
WAHOO          FAIR      81  60  49 S21       30.05F
$$



USA.gov is the U.S. government's official web portal to all federal, state and local government web resources and services.